Погода Озерная

Погода Озерная : погода сейчас, прогноз погоды и архив. Всё, что Вы хотите узнать о погоде Озерная!

Хотите узнать прогноз погоды Озерная? Тогда Вам сюда: Погода Озерная

Поиск расширенной информации на нашем сайте:

Другие новости

Новости СМИ2

Главная страница сайта

Новости сайта

02.10.2013

Напоминаем, что на нашем новом сайте вы можете получить высокодетализированные прогнозы погоды по пунктам России, СНГ и мира (включающие важные для авиации метеовеличины, такие как направление и скорость ветра, видимость, явления погоды, количество и форма облачности, нижняя и верхняя граница облачности), а также ознакомиться с разнообразными материалами по авиационной метеорологии и подборкой полезных ссылок на эту тему.

Сайт Метеоцентр.Азия посвящён разработке технологий оптимизации авиаметеорологического обслуживания, включая проектирование и перспективное создание нескольких автоматизированных авиаметеорологических систем:
- система выпуска высокодетальных прогностических карт явлений погоды для нижнего воздушного пространства по России и ближнему зарубежью;
- система верификации прогнозов TAF (выпускаемых синоптиками официальных АМСГ РФ и ближнего зарубежья) и AUTOTAF (выпускаемых сайтом Метеоцентр.Азия) - выявление ошибок, онлайн-сопоставление с фактической погодой METAR, автоматическое внесение коррективов в прогнозы при резком отклонении фактической погоды от прогноза, подсчёт оправдываемости прогнозов по элементам и в целом;
- система обработки, анализа и отображения авиаметеорологической информации для применения провайдерами метеорологической информации.

Рекомендуем: Установка дверей в воронеже установка входных дверей воронеж.

Погода Озерная - сегодня

Время (UTC), дата Ветер
(°,м/с) 
Видим.   Явления Облачность Т
(°С)
Тd
(°С)
f(%) Тe
(°С)
Pmin
(гПа)
dP
(гПа)
Po
(мм)
O2
(г/м3)
Тmin Tmax R s Состояние
почвы
06 20.03.17 010 (С) 7{12}  20000 м    8/6 600 м верхняя 
[Sc|Ci fib]
+1.6 -1.2 82 -2  993.7  0.5  743  298           
09 20.03.17 020 (С) 6{10}  20000 м    9/9 600 м 
[Sc]
+1.9 -1.9 76 -1  994.9  1.2  744  298    +3       
12 20.03.17 010 (С) 6{11}  10 км    10/10 600 м кучево-дожд. 
[Cb calv]
+1.3 -1.6 81 -2  995.2  0.3  744  298           
15 20.03.17 350 (С) 10 км    10/10 600 м кучево-дожд. 
[Cb calv]
+0.4 -0.9 91 -2  995.7  0.5  744  299           
18 20.03.17 120 (ЮВ) 10 км    10/0 кучево-дожд. 
[Cb calv]
+1.5 -2 78 996  0.3  744  299           
21 20.03.17 360 (С) 20000 м    9/8 600 м кучево-дожд., верхняя 
[Cb calv|Ci]
+0.4 -1.1 90 -1  997.3  1.3  745  300  -0.2      мокрый или
старый снег
50-90% 
00 21.03.17 340 (С) 20000 м    9/8 600 м верхняя 
[Sc|Ci fib]
+1.3 -0.6 87 998.5  1.2  746  299           
03 21.03.17 310 (СЗ) 20000 м    9/5 600 м верхняя 
[Sc|Ci fib]
+1.9 -0.4 85 +3  999.3  0.8  747  299           
06 21.03.17 290 (З) 10 км    10/10 200 м 
[St]
+0.6 -0.4 93 -1  1000.6  1.3  748  301           
09 21.03.17 310 (СЗ) 4000 м  дымка  10/10 200 м 
[St]
-0.2 -0.6 97 -2  1002.7  749  302    +2.6       
12 21.03.17 250 (З) 2000 м  слаб. ливневой снег  10/10 200 м кучево-дожд. 
[Cb cap]
-0.7 -1 98 -2  1003.6  0.9  750  303           
15 21.03.17 260 (З) 4000 м  слаб. ливневой снег  10/10 300 м кучево-дожд. 
[Cb cap]
-1.3 -1.6 98 -4  1004.2  0.6  750  304           
18 21.03.17 320 (СЗ) 2000 м  слаб. ливневой снег  10/10 200 м кучево-дожд. 
[Cb cap]
-1.3 -1.6 98 -1  1004.5  0.3  751  304           
21 21.03.17 290 (З) 10 км  в посл. час ливневой снег  10/10 600 м кучево-дожд. 
[Cb calv]
-1.1 -1.7 96 -2  1005.2  0.7  751  304  -1.6    неравномерный
мокрый или
старый снег
100% 
00 22.03.17 320 (СЗ) 10 км  {ливн. осадки}  9/9 600 м кучево-дожд. 
[Cb calv]
-0.4 -2 89 -2  1005.5  0.3  751  303           
03 22.03.17 320 (СЗ) 4000 м  слаб. ливневой снег  10/10 300 м кучево-дожд. 
[Cb cap]
-0.6 -1.3 95 -2  1006.1  0.6  752  304           
06 22.03.17 310 (СЗ) 10 км  {ливн. осадки}  10/10 600 м кучево-дожд. 
[Cb calv]
-0.3 -2.2 87 1006.1  752  304           
09 22.03.17 320 (СЗ) 10 км  {ливн. осадки}  10/10 600 м кучево-дожд. 
[Cb calv]
-0.5 -2.7 85 -1  1006.9  0.8  752  304    +0.2  0.0     
12 22.03.17 тихо ()   4000 м  слаб. ливневой снег  10/10 300 м кучево-дожд. 
[Cb cap]
-1 -2 93 -1  1006.8  -0.1  752  305           
15 22.03.17 270 (З) 4000 м  слаб. ливневой снег  9/9 300 м кучево-дожд. 
[Cb cap]
-1 -3 86 -3  1006.6  -0.2  752  305           
18 22.03.17 040 (СВ) 4000 м  {ливн. осадки}  10/10 600 м кучево-дожд. 
[Cb calv]
-1.3 -2.3 93 -1  1006.2  -0.4  752  305           
21 22.03.17 070 (В) 10 км    10/10 600 м кучево-дожд. 
[Cb calv]
-1.3 -2.3 93 -1  1006.2  752  305  -1.6    0.0  <0.5  неравномерный
мокрый или
старый снег
100% 
00 23.03.17 300 (СЗ) 20000 м    9/8 600 м верхняя 
[Sc|Ci fib]
+0.1 -3.5 77 -1  1006.5  0.3  752  303           
03 23.03.17 320 (СЗ) 20000 м    10/10 600 м 
[Sc]
-0.1 -2.9 81 -1  1006.2  -0.3  752  303           
06 23.03.17 020 (С) 20000 м    10/10 600 м 
[Sc]
-0.3 -3.4 80 -2  1005.9  -0.3  752  304           
Время (UTC), дата Ветер
(°,м/с) 
Видим.   Явления Облачность Т
(°С)
Тd
(°С)
f(%) Тe
(°С)
Pmin
(гПа)
dP
(гПа)
Po
(мм)
O2
(г/м3)
Тmin Tmax R s Состояние
почвы

Для получения пояснительной информации подведите курсор к названию столбца.

ПОГОДА Озерная - архив

Всё, что Вы хотите узнать о погоде Озерная - удобно и подробно!

Выберите нужную дату (начиная с 1 января 2015* года) и нажмите кнопку "Найти".
Будут отображены архивные сводки погоды по пункту Озерная, начиная с указанной даты.


Отображать данные в формате CSV (для использования в таблицах Excel)


Внимание! Наш архив погоды предназначен исключительно для личного некоммерческого использования в познавательных целях. Если Вам необходимы официальные справки о состоянии погоды (для производственных, юридических, коммерческих и т.п. целей), обращайтесь в органы Росгидромета.

*Примечание: данная дата относится к архиву по метеостанциям СССР (Россия, СНГ, Балтия).
Архив по метеостанциям Зарубежной Европы и Азии (кроме Китая) хранится 10 дней, по другим регионам земного шара (Китай, Африка, Америка, Австралия, Океания) - 1 день.

Озерная - район местоположения метеостанции


Название, широта, долгота, высота метеостанции:
Озерная 51.5°ш. 156.5°д. 28 м над ур. моря [Российская Федерация]

Дополнительная информация

В oтличие oт бoльшинства пoгoдных сайтoв мы публикуем пoдрoбную метеoинфoрмацию в детальнoм прoфессиoнальнoм фoрмате.

Характеристики температуры и влажнoсти вoздуха измеряются на высoте 2 м в тени вдали oт зданий и деревьев.
Скoрoсть ветра измеряется на высoте 10 м (на урoвне рoста челoвека скoрoсть ветра ниже в 1.5-2 раза). Если метеoстанция нахoдится в гoрoде или в лесу, тo скoрoсть ветра занижена на 2-4 м/с пo сравнению с oткрытым местoм. Скoрoсть ветра над акватoриями крупных рек и oзёр, а также на вершинах хoлмoв на 2-5 м/с выше, чем в oбычных услoвиях.
Атмoсфернoе давление в разных тoчках местнoсти мoжет значительнo oтличаться oт давления на метеoстанции, в зависимoсти oт услoвий рельефа (при пoдъёме на 10 м давление пoнижается примернo на 1 мм рт.ст.).